Estación de Tranapuente INIA

Ultimos registro cada 15 minutos 35
Estación Fecha / Hora Temperatura Humedad Lluvia Velocidad Dirección Radiación Presion
35 Tranapuente INIA 05-09-2026 08:30 7,7 50,3 0 2,5 137 177,2 1019
34 Tranapuente INIA 05-09-2026 08:15 7,3 51,2 0 2,6 145 135,5 1019
33 Tranapuente INIA 05-09-2026 08:00 6,8 56,3 0 2,6 146 93,6 1019
32 Tranapuente INIA 05-09-2026 07:45 6,3 59,1 0 2,6 143 52,3 1019
31 Tranapuente INIA 05-09-2026 07:30 5,3 62,8 0 1,8 137 18,4 1019
30 Tranapuente INIA 05-09-2026 07:15 4,6 72 0 0,6 134 3,8 1019
29 Tranapuente INIA 05-09-2026 07:00 3,8 83,8 0 0 0 0,8 1019
28 Tranapuente INIA 05-09-2026 06:45 3,7 88,9 0 0 0 0,4 1019
27 Tranapuente INIA 05-09-2026 06:30 3,8 94,6 0 0 0 0,3 1019
26 Tranapuente INIA 05-09-2026 06:15 3,6 98,8 0 0 0 0,3 1019
25 Tranapuente INIA 05-09-2026 06:00 3,7 98,8 0 0 0 0,2 1019
24 Tranapuente INIA 05-09-2026 05:45 4 99,5 0 0 0 0,2 1019
23 Tranapuente INIA 05-09-2026 05:30 3,6 99,9 0 0 0 0,2 1019
22 Tranapuente INIA 05-09-2026 05:15 3,6 99,6 0 0 0 0,2 1019
21 Tranapuente INIA 05-09-2026 05:00 4,1 99,1 0 0 0 0,2 1019
20 Tranapuente INIA 05-09-2026 04:45 4,6 99,5 0 0 0 0,2 1019
19 Tranapuente INIA 05-09-2026 04:30 3,9 99,9 0,1 0 0 0,2 1019
18 Tranapuente INIA 05-09-2026 04:15 3,9 98,9 0 0,1 324 0,2 1019
17 Tranapuente INIA 05-09-2026 04:00 4,2 99,6 0 0 0 0,3 1019
16 Tranapuente INIA 05-09-2026 03:45 4,5 99,2 0 0 0 0,2 1019
15 Tranapuente INIA 05-09-2026 03:30 4,7 98,8 0 0 0 0,3 1019
14 Tranapuente INIA 05-09-2026 03:15 5,2 97,9 0 0 0 0,3 1020
13 Tranapuente INIA 05-09-2026 03:00 5 99,5 0 0 0 0,4 1020
12 Tranapuente INIA 05-09-2026 02:45 5,3 99,1 0 0 0 0,4 1020
11 Tranapuente INIA 05-09-2026 02:30 5,4 98,7 0 0 0 0,4 1020
10 Tranapuente INIA 05-09-2026 02:15 6 98,9 0 0 0 0,4 1020
9 Tranapuente INIA 05-09-2026 02:00 6,1 99 0 0 0 0,4 1020
8 Tranapuente INIA 05-09-2026 01:45 5,8 99,5 0 0 0 0,4 1020
7 Tranapuente INIA 05-09-2026 01:30 5,7 98,3 0 0 0 0,4 1020
6 Tranapuente INIA 05-09-2026 01:15 5,8 98,6 0 0 0 0,4 1020
5 Tranapuente INIA 05-09-2026 01:00 6,1 98,5 0 0 0 0,4 1020
4 Tranapuente INIA 05-09-2026 00:45 6,1 98,6 0 0 0 0,4 1020
3 Tranapuente INIA 05-09-2026 00:30 6,6 97,6 0 0 0 0,4 1020
2 Tranapuente INIA 05-09-2026 00:15 6,8 98 0 0 0 0,4 1021
1 Tranapuente INIA 05-09-2026 00:00 6,2 99,3 0 0 0 0,4 1021